[[{"header":{"parameterUnit":"m.s-1","parameterCategory":1,"la1":30.2991,"la2":30.254,"lo1":-89.0895,"lo2":-89.0444,"dy":0.0017,"dx":0.0017,"nx":28,"ny":28,"refTime":"2023-07-26T21:00:00:Z","depth":0,"parameterNumber":2,"parameterNumberName":"U-component_of_WINDS"},"data":[0,0,0,0,0,0,0,0,0,0,0,0,0,0,0,0,0,0,0,0,0,0,0,0,0,0,0,0,0,0,0,0,0,0,0,0,0,0,0,0,0,0,0,0,0,0,0,0,0,0,0,0,0,0,0,0,0,0,0.2336,0.2335,0,0.2256,0.2255,0.2254,0.2186,0.2186,0.2185,0.2184,0.2102,0.2101,0.21,0,0,0,0,0,0,0,0,0,0,0,0,0,0.2432,0.2431,0.2336,0.2335,0.2334,0.2256,0.2255,0.2253,0.2187,0.2186,0.2185,0.2184,0.2103,0.2101,0.2099,0,0,0,0,0,0,0,0,0,0,0,0,0,0.2375,0.2431,0.2336,0.2291,0.2287,0.2256,0.2255,0.2253,0.2187,0.2186,0.2185,0.2184,0.2104,0.2101,0.2099,0.2107,0,0,0.2092,0.2091,0,0,0,0,0,0,0,0,0.2379,0.2372,0.2299,0.2294,0.2289,0.223,0.2258,0.2204,0.2187,0.2225,0.2184,0.2183,0.2146,0.214,0.2127,0.2103,0.2099,0.2092,0.2091,0.209,0.2089,0,0,0,0,0,0,0,0.2383,0.2375,0.2304,0.2298,0.2292,0.2275,0.2266,0.2248,0.2192,0.2221,0.2216,0.2208,0.2143,0.213,0.2125,0.2098,0.2092,0.209,0.2089,0.2088,0.2075,0.2076,0,0,0,0,0,0,0.2394,0.2379,0.2307,0.2302,0.2332,0.2274,0.2264,0.225,0.2192,0.2182,0.2209,0.2205,0.2134,0.2128,0.2122,0.2126,0.209,0.2088,0.2086,0.2074,0.2075,0.2076,0,0,0,0,0,0,0.2396,0.2388,0.231,0.2339,0.2328,0.2274,0.2259,0.2249,0.2236,0.2183,0.2173,0.2205,0.2133,0.2125,0.2111,0.2122,0.2087,0.2084,0.2073,0.2074,0.2075,0.2134,0,0,0,0,0,0,0.2399,0.2389,0.2391,0.2339,0.2326,0.2301,0.2259,0.2248,0.2232,0.2226,0.2177,0.2168,0.2131,0.2114,0.2108,0.2118,0.2083,0.2071,0.2073,0.2075,0.2131,0.2138,0.2143,0,0,0,0,0,0.2403,0.2412,0.2392,0.2384,0.2328,0.2301,0.2294,0.2252,0.2233,0.2235,0.2201,0.2169,0.2122,0.2113,0.2106,0.2115,0.207,0.2073,0.2075,0.2129,0.2137,0.2143,0,0,0,0,0,0,0.2467,0.2404,0.2381,0.2374,0.2344,0.229,0.2291,0.2262,0.2236,0.2232,0.2181,0.2171,0.2162,0.2137,0.2129,0.2119,0.2092,0.2093,0.2135,0.2142,0.2148,0.2154,0.2081,0,0,0,0,0,0.248,0.2464,0.241,0.2408,0.2394,0.2346,0.2332,0.2302,0.2269,0.2256,0.222,0.2189,0.2167,0.2153,0.213,0.2128,0.2115,0.213,0.2137,0.2142,0.2143,0.2138,0.2144,0.2083,0.2083,0.2083,0,0,0.2508,0.2471,0.2464,0.242,0.2393,0.2377,0.2335,0.232,0.2307,0.2253,0.2237,0.221,0.2172,0.2163,0.2158,0.2143,0.2157,0.2145,0.2149,0.2147,0.2141,0.2147,0.2152,0.2085,0.2085,0.2085,0,0,0.2548,0.252,0.2515,0.2488,0.2447,0.2415,0.2414,0.2365,0.2345,0.2328,0.2287,0.2271,0.2234,0.2208,0.219,0.2221,0.2191,0.2215,0.2246,0.2243,0.2247,0.2251,0.2261,0.2265,0.2216,0.2217,0.2217,0,0.2588,0.2561,0.2516,0.2503,0.2484,0.2435,0.2429,0.2406,0.236,0.2348,0.2332,0.2284,0.2255,0.2239,0.2246,0.2234,0.223,0.222,0.225,0.2254,0.2257,0.2265,0.2269,0.222,0.2219,0.2219,0.2219,0,0.261,0.2593,0.2594,0.255,0.2531,0.2522,0.2476,0.2463,0.2435,0.2404,0.2387,0.235,0.2318,0.2312,0.2285,0.2292,0.2284,0.226,0.2231,0.2266,0.2274,0.2277,0.2224,0.2223,0.2222,0.2221,0,0,0.2689,0.262,0.2621,0.26,0.2551,0.2536,0.2525,0.2493,0.2482,0.2453,0.2441,0.2411,0.2388,0.2368,0.2337,0.2334,0.2359,0.231,0.2308,0.2319,0.2363,0.238,0.2385,0.2339,0.2339,0.234,0.2366,0,0.2721,0.2697,0.2656,0.2645,0.2627,0.258,0.2569,0.2538,0.2509,0.249,0.2458,0.2437,0.2409,0.2396,0.2391,0.2357,0.2367,0.2355,0.2327,0.2326,0.2337,0.2389,0.2407,0.2433,0.2368,0.2369,0.2369,0,0.2755,0.2727,0.2714,0.2666,0.2657,0.2648,0.2615,0.2598,0.2561,0.254,0.2517,0.2484,0.2468,0.2443,0.2421,0.2414,0.24,0.2382,0.2382,0.2376,0.2349,0.2384,0.2441,0.2445,0.2373,0.2373,0.2373,0,0.2812,0.2772,0.2758,0.2742,0.2685,0.268,0.2656,0.2619,0.2602,0.2573,0.2562,0.2532,0.2516,0.2493,0.2453,0.2438,0.2435,0.2406,0.2416,0.2417,0.2416,0.2417,0.2471,0.241,0.241,0.241,0.241,0,0.2852,0.2845,0.2783,0.2774,0.2766,0.2719,0.2711,0.2683,0.265,0.2635,0.2593,0.258,0.2527,0.2508,0.2476,0.2462,0.2455,0.2437,0.2429,0.244,0.2442,0.243,0.2426,0.2411,0.2411,0.241,0.241,0,0.2914,0.2872,0.2853,0.2801,0.2788,0.2784,0.2739,0.2729,0.2697,0.2679,0.2672,0.2622,0.2597,0.2554,0.2518,0.2496,0.2488,0.2474,0.25,0.2494,0.2506,0.2505,0.2553,0.2556,0.2495,0.2496,0.2496,0,0.2941,0.2935,0.2881,0.2868,0.2846,0.2825,0.2808,0.2761,0.2745,0.2702,0.2697,0.2669,0.2644,0.2606,0.2567,0.2538,0.2522,0.2541,0.2518,0.2529,0.2521,0.2521,0.252,0.2546,0.2547,0.2548,0.2548,0,0.2993,0.2972,0.2949,0.2917,0.2897,0.2871,0.2842,0.2833,0.278,0.2764,0.2738,0.2718,0.268,0.2652,0.2618,0.2593,0.2562,0.2556,0.2557,0.2568,0.2583,0.2574,0.2513,0.2555,0.2554,0.2554,0.2554,0.2553,0.3037,0.3029,0.299,0.2965,0.2938,0.2912,0.2899,0.2866,0.2843,0.2808,0.2782,0.2758,0.2721,0.2671,0.2648,0.2628,0.2614,0.2615,0.2615,0.2616,0.262,0.2587,0.2622,0.2622,0.2621,0.2621,0.2621,0,0.3086,0.3059,0.3036,0.2996,0.2976,0.2949,0.2915,0.29,0.2879,0.2847,0.2823,0.2792,0.2765,0.2723,0.2693,0.2685,0.2669,0.2678,0.2677,0.2672,0.2635,0.2637,0.2691,0.2691,0.2691,0.2691,0.2691,0.2691,0.3109,0.3093,0.3068,0.3039,0.3011,0.2986,0.2969,0.2945,0.2919,0.2886,0.2863,0.2836,0.28,0.2766,0.274,0.2728,0.2719,0.2732,0.2716,0.2681,0.2675,0.2669,0.267,0.273,0.273,0.2754,0.2754,0.2755]},{"header":{"parameterUnit":"m.s-1","parameterCategory":1,"la1":30.2991,"la2":30.254,"lo1":-89.0895,"lo2":-89.0444,"dy":0.0017,"dx":0.0017,"nx":28,"ny":28,"refTime":"2023-07-26T21:00:00:Z","depth":0,"parameterNumber":3,"parameterNumberName":"V-component_of_WINDS"},"data":[0,0,0,0,0,0,0,0,0,0,0,0,0,0,0,0,0,0,0,0,0,0,0,0,0,0,0,0,0,0,0,0,0,0,0,0,0,0,0,0,0,0,0,0,0,0,0,0,0,0,0,0,0,0,0,0,0,0,0.5055,0.5057,0,0.5306,0.5309,0.5312,0.5411,0.541,0.541,0.5409,0.567,0.5677,0.5684,0,0,0,0,0,0,0,0,0,0,0,0,0,0.4663,0.4669,0.5054,0.5057,0.5061,0.5306,0.5309,0.5313,0.5411,0.541,0.5409,0.5409,0.5667,0.5676,0.5685,0,0,0,0,0,0,0,0,0,0,0,0,0,0.4865,0.4672,0.5054,0.5139,0.5149,0.5305,0.5309,0.5314,0.5411,0.541,0.5409,0.5408,0.5664,0.5675,0.5686,0.5776,0,0,0.5721,0.5726,0,0,0,0,0,0,0,0,0.4854,0.488,0.5124,0.5134,0.5145,0.5326,0.5267,0.5469,0.5412,0.5312,0.5409,0.5408,0.5556,0.5576,0.5626,0.5789,0.58,0.5722,0.5729,0.5734,0.5737,0,0,0,0,0,0,0,0.484,0.4869,0.5154,0.5127,0.514,0.5166,0.5194,0.5305,0.5437,0.5321,0.5328,0.5357,0.5562,0.5615,0.5633,0.5804,0.5722,0.5732,0.5739,0.5743,0.6055,0.6057,0,0,0,0,0,0,0.4811,0.4857,0.5146,0.5162,0.4994,0.5174,0.5205,0.5269,0.5436,0.546,0.5357,0.536,0.5596,0.5619,0.5642,0.5761,0.5734,0.5744,0.5751,0.6054,0.6056,0.6057,0,0,0,0,0,0,0.4802,0.4836,0.5136,0.5012,0.5052,0.5182,0.5253,0.5275,0.5327,0.5463,0.5488,0.5387,0.5596,0.5626,0.5743,0.5771,0.5749,0.576,0.6052,0.6055,0.6057,0.5997,0,0,0,0,0,0,0.479,0.4832,0.4867,0.5012,0.5058,0.5231,0.5255,0.528,0.5346,0.5353,0.5498,0.5521,0.5598,0.5725,0.5754,0.5786,0.5768,0.605,0.6053,0.6056,0.5997,0.5997,0.5996,0,0,0,0,0,0.4776,0.484,0.4868,0.4902,0.5104,0.5232,0.5259,0.5345,0.5348,0.5385,0.5473,0.5516,0.5763,0.5736,0.5769,0.5806,0.6049,0.6052,0.6056,0.5997,0.5997,0.5996,0,0,0,0,0,0,0.4695,0.486,0.4893,0.5005,0.5104,0.5249,0.5297,0.5342,0.5442,0.5444,0.5548,0.558,0.5688,0.5759,0.5726,0.5903,0.5909,0.5919,0.5853,0.5854,0.5854,0.5836,0.5778,0,0,0,0,0,0.469,0.478,0.4919,0.5005,0.5053,0.5166,0.5225,0.5283,0.539,0.5433,0.5529,0.5631,0.5733,0.5797,0.5897,0.6007,0.6041,0.6048,0.6048,0.6047,0.6055,0.6121,0.6126,0.6068,0.6068,0.6068,0,0,0.4682,0.4783,0.4833,0.4991,0.5075,0.5166,0.5201,0.5296,0.5366,0.5448,0.5564,0.5637,0.5759,0.5873,0.5928,0.5935,0.6079,0.6052,0.605,0.6059,0.6125,0.613,0.6135,0.6071,0.607,0.607,0,0,0.4713,0.4797,0.4879,0.4961,0.5087,0.5162,0.5181,0.532,0.5372,0.549,0.5554,0.5639,0.581,0.5895,0.596,0.6024,0.6069,0.6054,0.6054,0.6116,0.6121,0.6126,0.615,0.6158,0.6061,0.6061,0.6061,0,0.4686,0.4826,0.4915,0.5008,0.5077,0.5154,0.5239,0.5315,0.5466,0.5513,0.5518,0.5736,0.5823,0.5959,0.5974,0.6024,0.6051,0.6039,0.6113,0.6118,0.6124,0.6149,0.6158,0.6058,0.6059,0.6059,0.6059,0,0.4788,0.4884,0.4935,0.508,0.5154,0.5242,0.5346,0.5411,0.5462,0.5537,0.5657,0.5765,0.5889,0.5925,0.5977,0.6069,0.607,0.6092,0.6101,0.6125,0.6151,0.6161,0.6055,0.6056,0.6057,0.6057,0,0,0.4776,0.4969,0.4987,0.5054,0.5198,0.5275,0.5367,0.5488,0.5542,0.5644,0.5726,0.5869,0.5892,0.5966,0.6027,0.6082,0.6128,0.6099,0.6103,0.6102,0.624,0.6223,0.6232,0.6158,0.616,0.6162,0.623,0,0.4828,0.4995,0.5079,0.5211,0.5302,0.5377,0.5457,0.5555,0.5628,0.5717,0.5798,0.5899,0.5919,0.5965,0.6022,0.611,0.6158,0.6106,0.6237,0.624,0.6206,0.6245,0.6228,0.6287,0.624,0.6242,0.6243,0,0.4911,0.5012,0.5153,0.5288,0.533,0.54,0.5519,0.5602,0.5715,0.5765,0.5848,0.5908,0.601,0.601,0.6152,0.6115,0.6174,0.6225,0.623,0.6247,0.6244,0.6265,0.6308,0.6317,0.6259,0.6258,0.6257,0,0.4891,0.5062,0.5169,0.5224,0.5384,0.5432,0.5501,0.5613,0.5681,0.5785,0.5831,0.5945,0.6008,0.6095,0.6186,0.6177,0.632,0.6327,0.6366,0.6364,0.6394,0.6391,0.6448,0.6428,0.6428,0.6427,0.6427,0,0.4941,0.5024,0.5162,0.5228,0.5325,0.542,0.5514,0.5588,0.5688,0.5771,0.5843,0.5919,0.6033,0.6124,0.6195,0.6304,0.6331,0.6375,0.6394,0.637,0.6365,0.6411,0.641,0.643,0.6429,0.6429,0.6428,0,0.4935,0.503,0.5152,0.5293,0.5331,0.5396,0.5518,0.5586,0.5662,0.5766,0.5796,0.5916,0.6027,0.6126,0.6273,0.6321,0.6433,0.6454,0.6394,0.6405,0.6438,0.6434,0.6528,0.6547,0.6511,0.6511,0.6512,0,0.4962,0.5028,0.5176,0.5237,0.5304,0.54,0.547,0.5567,0.5637,0.5772,0.5824,0.594,0.6039,0.6213,0.6314,0.6428,0.6454,0.6479,0.6472,0.6447,0.6457,0.6453,0.6461,0.6479,0.6479,0.6479,0.6479,0,0.5,0.5044,0.5141,0.5255,0.5336,0.5431,0.5528,0.5574,0.5689,0.5764,0.5879,0.5955,0.6106,0.6221,0.6346,0.6419,0.6469,0.648,0.6496,0.6473,0.6437,0.6459,0.6396,0.6478,0.6478,0.6478,0.6478,0.6478,0.5013,0.5076,0.519,0.5297,0.538,0.5469,0.554,0.5625,0.5722,0.5852,0.5903,0.602,0.6134,0.6307,0.638,0.6474,0.6483,0.6504,0.651,0.6514,0.6511,0.642,0.6496,0.6497,0.6497,0.6497,0.6497,0,0.5056,0.5134,0.5231,0.5364,0.5448,0.5487,0.5596,0.5665,0.5767,0.5868,0.5963,0.6096,0.6208,0.6318,0.6437,0.6491,0.6517,0.6519,0.6517,0.6534,0.6496,0.6471,0.6496,0.6496,0.6496,0.6496,0.6496,0.6496,0.5089,0.5198,0.5256,0.5408,0.5485,0.56,0.566,0.5743,0.5825,0.5969,0.6063,0.6133,0.6239,0.6366,0.6472,0.6501,0.6543,0.6539,0.6575,0.6537,0.6536,0.6535,0.6513,0.6546,0.6546,0.6606,0.6606,0.6607]}]]